• In Czech Republic
  • List of Countries
  • For 7 days
  • Water Temperature
  • Satellite Maps
  • Weather Map
  • Weather Widgets
  • user-avatar
    Login

    Hourly Weather Tyumenevka

    Today, 22 September, Saturday

    Time Temperature Precipitation Wind Pressure Humidity
    00:00 +17°C° 0 mm 2 mps 751 mmHg 75%
    01:00 +17°C° 0 mm 2 mps 751 mmHg 76%
    02:00 +16°C° 0 mm 2 mps 751 mmHg 77%
    03:00 +16°C° 0 mm 2 mps 751 mmHg 79%
    04:00 +16°C° 0 mm 2 mps 751 mmHg 80%
    05:00 +15°C° 0 mm 2 mps 751 mmHg 81%
    06:00 +15°C° 0 mm 2 mps 751 mmHg 82%
    07:00 +17°C° 0 mm 2 mps 751 mmHg 76%
    08:00 +18°C° 0 mm 3 mps 751 mmHg 70%
    09:00 +20°C° 0 mm 3 mps 751 mmHg 64%
    10:00 +21°C° 0 mm 3 mps 751 mmHg 59%
    11:00 +22°C° 0 mm 3 mps 751 mmHg 54%
    12:00 +25°C° 0 mm 3 mps 750 mmHg 49%
    13:00 +25°C° 0 mm 3 mps 750 mmHg 47%
    14:00 +26°C° 0 mm 3 mps 750 mmHg 46%
    15:00 +26°C° 0 mm 3 mps 750 mmHg 44%
    16:00 +25°C° 0 mm 3 mps 749 mmHg 49%
    17:00 +22°C° 0 mm 3 mps 749 mmHg 54%
    18:00 +21°C° 0 mm 3 mps 748 mmHg 59%
    19:00 +20°C° 0 mm 3 mps 748 mmHg 61%
    20:00 +19°C° 0 mm 3 mps 748 mmHg 63%
    21:00 +18°C° 0 mm 3 mps 748 mmHg 65%
    22:00 +18°C° 0 mm 4 mps 748 mmHg 66%
    23:00 +18°C° 0 mm 4 mps 748 mmHg 67%

    Tomorrow, 23 September, Sunday

    Time Temperature Precipitation Wind Pressure Humidity
    00:00 +17°C° 0 mm 4 mps 748 mmHg 67%
    01:00 +17°C° 0 mm 4 mps 747 mmHg 68%
    02:00 +17°C° 0 mm 4 mps 747 mmHg 68%
    03:00 +17°C° 0 mm 4 mps 747 mmHg 68%
    04:00 +15°C° 0 mm 5 mps 746 mmHg 68%
    05:00 +15°C° 0 mm 5 mps 746 mmHg 69%
    06:00 +15°C° 0 mm 5 mps 745 mmHg 69%
    07:00 +16°C° 0 mm 5 mps 745 mmHg 65%
    08:00 +19°C° 0 mm 6 mps 744 mmHg 61%
    09:00 +20°C° 0 mm 7 mps 744 mmHg 58%
    10:00 +22°C° 0 mm 7 mps 744 mmHg 53%
    11:00 +23°C° 0 mm 8 mps 743 mmHg 47%
    12:00 +26°C° 0 mm 8 mps 743 mmHg 42%
    13:00 +24°C° 0 mm 7 mps 743 mmHg 44%
    14:00 +24°C° 0 mm 6 mps 742 mmHg 47%
    15:00 +23°C° 0 mm 5 mps 742 mmHg 49%
    16:00 +20°C° 0.7 mm 6 mps 742 mmHg 59%
    17:00 +17°C° 0.7 mm 6 mps 742 mmHg 69%
    18:00 +14°C° 0.7 mm 6 mps 742 mmHg 79%
    19:00 +13°C° 1.2 mm 6 mps 743 mmHg 80%
    20:00 +12°C° 1.2 mm 5 mps 743 mmHg 82%
    21:00 +10°C° 1.2 mm 5 mps 743 mmHg 83%
    22:00 +9°C° 2.2 mm 5 mps 743 mmHg 84%
    23:00 +10°C° 2.2 mm 4 mps 744 mmHg 85%

    Day after tomorrow, 24 September, Monday

    Time Temperature Precipitation Wind Pressure Humidity
    00:00 +10°C° 2.2 mm 3 mps 744 mmHg 86%
    01:00 +10°C° 0.2 mm 3 mps 744 mmHg 87%
    02:00 +10°C° 0.2 mm 3 mps 744 mmHg 87%
    03:00 +10°C° 0.2 mm 3 mps 744 mmHg 88%
    04:00 +9°C° 0 mm 3 mps 744 mmHg 90%
    05:00 +9°C° 0 mm 3 mps 744 mmHg 92%
    06:00 +8°C° 0 mm 3 mps 744 mmHg 94%
    07:00 +10°C° 0 mm 3 mps 745 mmHg 88%
    08:00 +12°C° 0 mm 2 mps 745 mmHg 81%
    09:00 +13°C° 0 mm 2 mps 745 mmHg 75%
    10:00 +13°C° 0 mm 3 mps 745 mmHg 68%
    11:00 +16°C° 0 mm 3 mps 745 mmHg 60%
    12:00 +17°C° 0 mm 3 mps 745 mmHg 53%
    13:00 +17°C° 0 mm 3 mps 744 mmHg 50%
    14:00 +17°C° 0 mm 3 mps 744 mmHg 47%
    15:00 +18°C° 0 mm 3 mps 743 mmHg 45%
    16:00 +17°C° 0 mm 4 mps 743 mmHg 48%
    17:00 +15°C° 0 mm 4 mps 742 mmHg 52%
    18:00 +14°C° 0 mm 4 mps 742 mmHg 55%
    19:00 +14°C° 0.4 mm 5 mps 741 mmHg 58%
    20:00 +13°C° 0.4 mm 6 mps 740 mmHg 62%
    21:00 +12°C° 0.4 mm 7 mps 740 mmHg 65%
    22:00 +12°C° 1.2 mm 8 mps 739 mmHg 68%
    23:00 +11°C° 1.2 mm 9 mps 738 mmHg 71%

    25 September, Tuesday

    Time Temperature Precipitation Wind Pressure Humidity
    00:00 +11°C° 1.2 mm 9 mps 737 mmHg 75%
    01:00 +11°C° 0.2 mm 9 mps 737 mmHg 76%
    02:00 +11°C° 0.2 mm 9 mps 736 mmHg 76%
    03:00 +11°C° 0.2 mm 9 mps 736 mmHg 77%
    04:00 +10°C° 0 mm 8 mps 736 mmHg 77%
    05:00 +9°C° 0 mm 8 mps 735 mmHg 78%
    06:00 +8°C° 0 mm 7 mps 735 mmHg 78%
    07:00 +7°C° 0 mm 8 mps 735 mmHg 74%
    08:00 +8°C° 0 mm 9 mps 735 mmHg 71%
    09:00 +9°C° 0 mm 10 mps 735 mmHg 68%
    10:00 +9°C° 0 mm 10 mps 735 mmHg 67%
    11:00 +9°C° 0 mm 10 mps 735 mmHg 66%
    12:00 +9°C° 0 mm 10 mps 735 mmHg 65%
    13:00 +9°C° 0 mm 10 mps 735 mmHg 65%
    14:00 +9°C° 0 mm 11 mps 735 mmHg 65%
    15:00 +9°C° 0 mm 11 mps 735 mmHg 66%
    16:00 +8°C° 0.1 mm 10 mps 736 mmHg 68%
    17:00 +7°C° 0.1 mm 10 mps 736 mmHg 71%
    18:00 +7°C° 0.1 mm 9 mps 737 mmHg 73%
    19:00 +7°C° 0.2 mm 9 mps 737 mmHg 74%
    20:00 +6°C° 0.2 mm 9 mps 738 mmHg 74%
    21:00 +6°C° 0.2 mm 9 mps 739 mmHg 74%
    22:00 +6°C° 0 mm 8 mps 739 mmHg 74%
    23:00 +5°C° 0 mm 8 mps 740 mmHg 73%

    26 September, Wednesday

    Time Temperature Precipitation Wind Pressure Humidity
    00:00 +5°C° 0 mm 7 mps 741 mmHg 73%
    01:00 +5°C° 0 mm 7 mps 741 mmHg 74%
    02:00 +4°C° 0 mm 6 mps 742 mmHg 75%
    03:00 +4°C° 0 mm 6 mps 742 mmHg 76%
    04:00 +3°C° 0 mm 6 mps 743 mmHg 77%
    05:00 +3°C° 0 mm 6 mps 743 mmHg 78%
    06:00 +2°C° 0 mm 6 mps 744 mmHg 79%
    07:00 +3°C° 0 mm 6 mps 744 mmHg 73%
    08:00 +4°C° 0 mm 6 mps 745 mmHg 67%
    09:00 +5°C° 0 mm 6 mps 745 mmHg 62%
    10:00 +6°C° 0 mm 7 mps 746 mmHg 56%
    11:00 +8°C° 0 mm 7 mps 746 mmHg 50%
    12:00 +9°C° 0 mm 7 mps 747 mmHg 44%
    13:00 +9°C° 0 mm 7 mps 747 mmHg 47%
    14:00 +9°C° 0 mm 7 mps 747 mmHg 50%
    15:00 +10°C° 0 mm 8 mps 748 mmHg 52%
    16:00 +9°C° 0 mm 6 mps 748 mmHg 56%
    17:00 +8°C° 0 mm 5 mps 748 mmHg 60%
    18:00 +8°C° 0 mm 4 mps 749 mmHg 64%
    19:00 +7°C° 0.1 mm 4 mps 749 mmHg 67%
    20:00 +8°C° 0.1 mm 3 mps 750 mmHg 71%
    21:00 +8°C° 0.1 mm 3 mps 750 mmHg 74%
    22:00 +7°C° 0 mm 3 mps 750 mmHg 77%
    23:00 +7°C° 0 mm 3 mps 751 mmHg 80%

    27 September, Thursday

    Time Temperature Precipitation Wind Pressure Humidity
    00:00 +7°C° 0 mm 2 mps 751 mmHg 82%
    01:00 +6°C° 0 mm 2 mps 751 mmHg 84%
    02:00 +6°C° 0 mm 2 mps 752 mmHg 86%
    03:00 +6°C° 0 mm 2 mps 752 mmHg 88%
    04:00 +6°C° 0 mm 2 mps 752 mmHg 88%
    05:00 +5°C° 0 mm 2 mps 752 mmHg 89%
    06:00 +5°C° 0 mm 2 mps 752 mmHg 89%
    07:00 +5°C° 0 mm 3 mps 753 mmHg 83%
    08:00 +7°C° 0 mm 3 mps 753 mmHg 77%
    09:00 +8°C° 0 mm 3 mps 753 mmHg 71%
    10:00 +8°C° 0 mm 4 mps 753 mmHg 62%
    11:00 +10°C° 0 mm 4 mps 753 mmHg 53%
    12:00 +10°C° 0 mm 5 mps 753 mmHg 45%
    13:00 +10°C° 0 mm 5 mps 753 mmHg 42%
    14:00 +10°C° 0 mm 5 mps 752 mmHg 40%
    15:00 +12°C° 0 mm 5 mps 752 mmHg 38%
    16:00 +10°C° 0 mm 5 mps 752 mmHg 41%
    17:00 +10°C° 0 mm 4 mps 751 mmHg 44%
    18:00 +9°C° 0 mm 3 mps 751 mmHg 48%
    19:00 +8°C° 0 mm 4 mps 751 mmHg 49%
    20:00 +8°C° 0 mm 4 mps 751 mmHg 51%
    21:00 +8°C° 0 mm 5 mps 750 mmHg 52%
    22:00 +8°C° 0 mm 5 mps 750 mmHg 55%
    23:00 +8°C° 0 mm 5 mps 750 mmHg 58%
    Show more